EW3286 Weather Reports


Display with metric or nautical units.
time (UTC)temp
F
wind
direction
speed
MPH
gust
MPH
rain 1hr
in
rain 24hr
in
rain mn
in
humidity
%
barometer
mb
20260906200026 67 28 0.0 0.0 0.00 0.00 0.00 91 1015.2
20260906194526 67 87 0.0 0.0 0.00 0.00 0.00 93 1015.6
20260906193024 66 119 0.0 0.0 0.00 0.00 0.00 93 1015.3
20260906191524 66 37 0.0 0.0 0.00 0.00 0.00 93 1015.1
20260906190024 66 78 0.0 0.0 0.00 0.00 0.00 93 1015.6
20260906184523 66 85 0.0 0.0 0.00 0.00 0.00 92 1016.3
20260906183021 67 79 0.0 0.0 0.00 0.00 0.00 91 1016.6
20260906181519 67 142 0.0 0.0 0.00 0.00 0.00 90 1017.3
20260906180017 67 51 0.0 0.0 0.00 0.00 0.00 89 1016.9
20260906174521 67 103 0.0 0.0 0.00 0.00 0.00 88 1016.6
20260906173013 68 160 0.0 0.0 0.00 0.00 0.00 88 1016.6
20260906171510 69 218 0.0 0.0 0.00 0.00 0.00 85 1017.0
20260906170014 70 191 0.0 0.0 0.00 0.00 0.00 80 1017.5
20260906164506 70 315 0.0 0.0 0.00 0.00 0.00 78 1017.0
20260906163001 70 355 0.0 0.0 0.00 0.00 0.00 78 1015.0
20260906161558 70 27 0.0 0.0 0.00 0.00 0.00 85 1015.4
20260906160107 72 5 0.0 0.0 0.00 0.00 0.00 96 1015.2
20260906154559 73 24 0.0 0.0 0.00 0.00 0.00 96 1015.4
20260906153050 73 33 0.0 0.0 0.00 0.00 0.00 96 1014.8
20260906151551 73 38 0.0 0.0 0.00 0.00 0.00 97 1014.3
20260906150056 72 40 0.0 0.0 0.00 0.00 0.00 97 1014.3
20260906144546 72 57 0.0 0.0 0.00 0.00 0.00 97 1014.2
20260906143045 72 43 0.0 0.0 0.00 0.00 0.00 97 1014.6
20260906141544 72 54 0.0 0.0 0.00 0.00 0.00 97 1014.6
20260906140042 72 45 0.0 0.0 0.00 0.00 0.00 97 1014.6
20260906134548 72 51 0.0 0.0 0.00 0.00 0.00 97 1014.5
20260906133101 72 32 0.0 0.0 0.00 0.00 0.00 97 1014.3
20260906131536 72 58 0.0 0.0 0.00 0.00 0.00 97 1014.3
20260906130038 71 65 0.0 0.0 0.00 0.00 0.00 97 1014.3
20260906124532 71 49 0.0 0.0 0.00 0.00 0.00 97 1014.2
20260906123032 71 53 0.0 0.0 0.00 0.00 0.00 97 1014.3
20260906121528 71 66 0.0 0.0 0.00 0.00 0.00 97 1014.3
20260906120025 71 72 0.0 0.0 0.00 0.00 0.00 97 1014.0
20260906114526 71 53 0.0 0.0 0.00 0.00 0.00 97 1013.9
20260906113023 71 63 0.0 0.0 0.00 0.00 0.00 97 1013.7
20260906111522 71 63 0.0 0.0 0.00 0.00 0.00 97 1013.6
20260906110021 71 57 0.0 0.0 0.00 0.00 0.00 96 1013.5
20260906104527 71 52 0.0 0.0 0.00 0.00 0.00 96 1013.6
20260906103023 71 52 0.0 0.0 0.00 0.00 0.00 96 1013.7
20260906101527 72 76 0.0 0.0 0.00 0.00 0.00 96 1013.6
20260906100016 72 35 0.0 0.0 0.00 0.00 0.00 96 1013.8
20260906094514 72 64 0.0 0.0 0.00 0.00 0.00 96 1013.8
20260906093014 72 34 0.0 0.0 0.00 0.00 0.00 96 1013.9
20260906091511 72 61 0.0 0.0 0.00 0.00 0.00 96 1013.9
20260906090011 72 65 0.0 0.0 0.00 0.00 0.00 96 1013.5
20260906084509 72 56 0.0 0.0 0.00 0.00 0.00 96 1013.3
20260906083008 72 31 0.0 0.0 0.00 0.00 0.00 96 1013.1
20260906081607 72 22 0.0 0.0 0.00 0.00 0.00 96 1013.1
20260906080006 72 55 0.0 0.0 0.00 0.00 0.00 96 1013.2
20260906074504 72 53 0.0 0.0 0.00 0.00 0.00 96 1013.2
20260906073001 73 25 0.0 0.0 0.00 0.00 0.00 96 1013.1
20260906071600 73 36 0.0 0.0 0.00 0.00 0.00 96 1013.2
20260906070059 73 44 0.0 0.0 0.00 0.00 0.00 96 1013.3
20260906064601 73 50 0.0 0.0 0.00 0.00 0.00 96 1013.4
20260906063057 73 57 0.0 0.0 0.00 0.00 0.00 96 1013.6
20260906061557 73 28 0.0 0.0 0.00 0.00 0.00 96 1013.6
20260906060049 73 26 0.0 0.0 0.00 0.00 0.00 96 1013.4
20260906054557 73 38 0.0 0.0 0.00 0.00 0.00 95 1013.3
20260906053043 73 29 0.0 0.0 0.00 0.00 0.00 95 1013.2
20260906051537 73 44 0.0 0.0 0.00 0.00 0.00 95 1013.2
20260906050039 73 55 0.0 0.0 0.00 0.00 0.00 95 1013.3
20260906044534 73 50 0.0 0.0 0.00 0.00 0.00 94 1013.3
20260906043034 73 50 0.0 0.0 0.00 0.00 0.00 94 1013.2
20260906041533 73 44 0.0 0.0 0.00 0.00 0.00 93 1013.3
20260906040039 74 46 0.0 0.0 0.00 0.00 0.00 93 1013.1
20260906034541 74 43 0.0 0.0 0.00 0.00 0.00 92 1013.1
20260906033032 74 44 0.0 0.0 0.00 0.00 0.00 91 1012.8
20260906031533 75 44 0.0 0.0 0.00 0.00 0.00 90 1012.9
20260906030031 75 45 0.0 0.0 0.00 0.00 0.00 90 1013.0
20260906024530 76 25 0.0 0.0 0.00 0.00 0.00 89 1013.1
20260906023030 76 21 0.0 0.0 0.00 0.00 0.00 88 1013.1
20260906021529 76 17 0.0 0.0 0.00 0.00 0.00 87 1012.9
20260906020130 76 41 0.0 0.0 0.00 0.00 0.00 86 1012.9
20260906014540 77 36 0.0 0.0 0.00 0.00 0.00 85 1012.6
20260906013030 77 36 0.0 0.0 0.00 0.00 0.00 84 1012.4
20260906011526 77 27 0.0 0.0 0.00 0.00 0.00 83 1012.7
20260906010026 78 44 0.0 0.0 0.00 0.00 0.00 81 1012.4
20260906004526 78 21 0.0 0.0 0.00 0.00 0.00 79 1011.9
20260906003025 79 54 0.0 0.0 0.00 0.00 0.00 77 1011.8
20260906001524 80 25 0.0 0.0 0.00 0.00 0.00 75 1011.7
20260906000024 81 36 0.0 0.0 0.00 0.00 0.00 73 1012.0
20260905234622 81 42 0.0 0.0 0.00 0.00 0.00 72 1011.9
20260905233032 81 34 0.0 0.0 0.00 0.00 0.00 70 1011.8
20260905231525 82 38 0.0 0.0 0.00 0.00 0.00 75 1011.5
20260905230020 82 355 0.0 0.0 0.00 0.00 0.00 74 1011.5
20260905224521 82 18 0.0 0.0 0.00 0.00 0.00 74 1011.4
20260905223018 82 40 0.0 0.0 0.00 0.00 0.00 73 1011.4
20260905221527 82 336 0.0 0.0 0.00 0.00 0.00 74 1011.7
20260905220011 82 9 0.0 0.0 0.00 0.00 0.00 74 1011.4
20260905214511 82 52 0.0 0.0 0.00 0.00 0.00 71 1011.4
20260905213006 83 51 0.0 0.0 0.00 0.00 0.00 71 1011.1
20260905211511 82 267 0.0 0.0 0.00 0.00 0.00 74 1011.0
20260905210005 82 40 0.0 0.0 0.00 0.00 0.00 71 1010.9
20260905204559 82 9 0.0 0.0 0.00 0.00 0.00 71 1010.8
20260905203101 82 40 0.0 0.0 0.00 0.00 0.00 65 1010.8
20260905201554 82 9 0.0 0.0 0.00 0.00 0.00 70 1010.7